Wind_Speed
65 67 66 65 65 66 66 67 67 65 64 64 62 60 57 57 56 51 47 37 28 28 28 29 30 27 26 28 27 26 25 20 17 17 12 9 8 5 4 3 4 6 7 8 11 13 13 14 16 17 17 18 19 19 20 20 20 19 19 20 20 20 22 22 23 24 24 25 25 25 25 26 26 27 27 27 27 27 27 26 25 24 22 21 19 18
67 68 68 67 67 69 69 68 68 67 67 65 63 61 59 58 58 55 50 43 36 33 32 32 30 27 28 30 31 30 27 21 18 19 14 10 9 7 6 5 4 5 6 6 9 11 11 12 14 15 16 17 18 19 19 20 19 20 20 20 20 21 22 23 23 24 23 24 25 25 24 24 25 26 26 27 27 27 27 27 26 25 24 23 22 20
69 70 71 70 70 71 71 70 70 70 69 66 64 63 60 59 59 57 54 50 45 39 35 33 30 29 30 31 32 31 27 22 21 21 17 13 11 9 8 8 6 5 5 5 6 8 10 11 12 14 15 15 17 17 18 19 19 19 20 20 20 21 21 22 23 23 23 23 24 24 24 24 24 25 25 26 26 27 27 27 26 26 25 24 23 22
73 73 74 73 72 73 73 71 71 71 70 68 66 64 60 59 60 58 55 52 49 45 38 33 32 31 31 31 31 30 27 23 22 23 20 16 13 11 11 11 9 6 5 5 5 6 8 9 10 11 13 14 15 16 17 18 18 19 19 20 20 20 20 21 22 23 22 22 22 23 24 24 25 24 25 25 26 27 27 27 27 26 26 26 25 24
76 77 78 77 75 75 75 73 72 73 72 70 69 68 63 59 59 59 55 50 49 49 43 36 34 34 33 33 30 30 30 27 24 25 22 17 15 14 13 15 13 9 6 6 5 5 6 8 8 9 11 12 13 14 15 16 17 17 18 18 19 19 20 20 21 22 22 22 22 23 24 25 25 25 26 26 26 27 27 28 27 27 26 26 26 25
80 80 80 79 77 77 77 75 74 74 73 72 71 70 68 62 60 59 57 52 47 46 44 40 37 36 37 36 32 30 32 30 28 27 24 18 18 18 16 16 15 11 8 6 6 5 5 6 7 7 8 11 11 11 12 13 14 15 16 16 16 17 19 20 20 21 21 22 22 22 23 25 26 26 26 26 26 27 27 28 28 27 27 26 26 26
81 81 81 80 79 78 78 77 76 76 75 74 72 71 70 66 62 60 59 57 50 45 44 43 40 38 37 37 34 31 31 32 31 29 26 22 21 22 19 18 17 13 9 8 7 6 5 4 6 6 6 9 10 10 10 11 12 13 14 15 15 15 17 18 19 20 21 21 22 22 22 24 25 26 26 26 26 27 27 28 28 29 28 28 27 27
81 82 82 82 80 78 79 78 77 77 77 76 74 73 71 69 65 61 59 58 55 49 45 43 41 39 38 36 33 32 32 34 33 31 28 25 25 26 22 20 20 16 12 10 9 8 7 5 4 6 6 6 8 9 9 9 11 11 12 13 13 14 14 16 17 19 20 21 21 22 22 23 24 25 25 25 26 26 27 28 29 29 29 29 29 29
83 84 84 84 83 80 80 79 77 78 79 79 76 73 71 69 67 63 60 58 56 52 46 42 40 40 40 38 34 33 33 35 35 32 30 28 27 28 25 23 22 18 14 12 11 10 9 7 5 5 5 6 6 7 8 8 9 10 10 11 12 13 13 14 15 17 18 19 20 21 21 21 22 23 24 25 25 25 26 27 28 29 30 30 30 30
84 84 84 84 84 82 82 80 77 78 80 80 77 74 72 70 68 63 59 58 55 49 45 42 40 41 41 40 37 35 34 35 36 34 32 29 27 28 26 24 24 22 18 16 14 12 10 9 6 5 5 5 5 6 6 7 7 8 9 9 10 11 12 12 13 15 16 17 18 19 19 20 20 21 22 23 24 25 25 26 27 28 30 30 30 30
84 84 83 84 84 83 82 80 79 79 80 79 77 76 74 73 71 62 58 61 56 48 45 43 42 42 41 41 41 39 36 36 36 35 34 32 29 28 27 26 26 25 22 19 17 15 13 10 8 6 5 5 5 5 5 5 6 7 7 7 8 10 11 11 12 13 15 16 17 18 18 18 19 19 20 21 22 23 24 25 26 27 28 29 30 30
86 86 84 84 85 84 82 81 82 81 81 79 77 77 76 73 72 67 63 64 58 51 49 48 46 44 42 42 43 41 39 38 36 36 36 35 31 30 28 27 27 27 25 22 20 18 16 13 10 7 6 5 5 5 5 5 4 5 6 6 6 8 9 10 11 12 13 15 16 17 17 18 18 18 19 20 20 21 23 24 25 25 26 27 28 30
89 88 86 85 86 85 82 82 83 82 80 79 78 78 77 75 74 73 69 65 60 56 54 52 49 47 46 46 45 43 40 37 36 37 38 37 33 30 28 26 27 28 27 24 22 20 18 15 12 10 7 6 5 5 4 4 3 3 4 5 5 5 6 8 9 10 11 13 14 15 16 17 17 18 18 19 20 21 22 23 24 24 25 25 26 28
90 88 87 86 85 85 83 82 82 80 79 79 79 79 79 77 76 76 73 67 64 61 56 54 53 50 49 48 45 44 41 39 39 39 39 39 35 31 29 26 26 28 28 26 24 22 20 17 15 13 10 8 6 5 4 4 3 0 2 4 4 4 4 4 5 7 8 10 11 13 14 16 16 17 18 19 20 20 21 22 23 23 24 24 25 26
89 89 89 87 86 86 84 82 81 81 80 82 83 81 81 79 78 78 75 71 69 64 57 55 55 52 49 47 46 46 44 41 41 42 41 39 36 33 31 30 29 29 30 28 26 24 22 19 18 16 13 11 8 6 5 4 3 1 2 4 4 4 3 3 3 3 5 7 8 10 12 13 15 16 16 17 18 20 21 22 23 23 24 24 24 24
89 90 90 88 88 88 86 83 83 84 84 85 85 83 82 81 79 79 77 74 73 69 61 56 56 55 51 48 47 48 47 45 43 43 43 41 37 35 34 34 33 31 31 30 28 26 24 22 20 18 16 14 11 8 6 5 4 3 2 3 4 4 4 4 4 3 3 4 5 6 7 10 11 13 15 16 17 18 20 21 22 23 23 24 24 24
89 90 89 88 86 87 86 84 85 86 86 86 86 85 85 84 81 80 78 76 76 73 65 60 59 56 51 49 49 49 49 48 45 45 45 43 40 38 36 35 35 33 31 30 29 28 26 24 22 20 19 17 14 11 9 7 6 5 4 3 3 4 4 5 6 6 5 4 3 3 4 5 7 9 11 13 14 16 18 20 21 22 22 23 24 24
90 89 88 87 85 85 85 84 85 86 86 86 87 88 87 85 81 79 78 77 77 74 68 65 63 59 54 51 51 51 50 49 47 47 47 46 43 41 39 35 34 33 31 29 30 29 27 26 24 23 21 19 17 14 12 10 8 8 8 7 6 5 4 5 5 6 5 5 5 4 3 4 4 5 7 9 11 13 16 18 19 20 21 22 22 23
90 89 88 88 87 86 85 84 84 85 86 87 88 88 86 85 82 80 79 79 79 75 69 67 65 62 58 55 53 53 52 50 49 48 49 48 46 44 40 36 35 35 32 29 30 31 30 28 27 25 23 21 19 17 15 14 12 11 11 11 11 9 8 7 6 5 5 5 4 4 4 6 5 3 4 5 7 10 12 15 17 18 19 20 21 21
89 89 88 88 87 87 86 85 84 85 87 87 88 87 85 85 84 83 82 81 80 77 72 68 66 63 61 58 56 55 53 51 50 50 49 49 47 44 40 37 35 35 34 31 31 32 31 29 28 27 26 24 21 19 19 18 16 15 14 14 14 13 12 11 10 9 8 6 4 3 4 7 6 4 3 3 4 5 7 10 13 15 16 17 18 19
89 89 89 88 86 86 86 86 85 87 88 88 89 88 86 86 86 85 84 83 82 80 75 71 68 65 62 60 59 58 56 52 51 50 49 49 48 43 39 38 37 37 36 35 34 34 32 30 29 29 28 26 23 21 20 20 18 17 16 15 16 16 15 15 14 14 13 11 9 8 7 7 6 5 4 3 2 3 4 6 8 11 13 14 15 16
90 90 90 88 85 85 86 86 85 86 88 88 89 89 88 87 86 86 86 85 84 83 79 75 72 68 64 62 61 61 58 54 51 50 49 50 49 44 38 38 38 38 38 37 37 35 32 30 29 29 30 29 27 23 21 22 21 19 18 18 18 18 18 18 18 17 17 16 15 14 13 12 9 7 6 4 2 2 3 4 4 5 8 10 12 13
90 92 91 89 87 86 86 86 84 85 86 87 88 90 90 89 88 88 88 88 86 84 82 78 73 70 67 64 63 63 60 56 53 51 50 51 50 47 43 40 38 37 37 36 36 35 33 31 30 30 31 31 29 27 24 25 24 23 22 22 22 22 22 21 21 20 20 20 20 19 17 16 14 11 9 7 5 5 4 2 2 3 4 6 8 10
88 91 91 89 88 88 88 88 87 86 87 88 89 91 91 91 91 90 90 90 88 85 84 80 74 71 70 68 66 64 62 59 56 53 52 52 52 50 48 44 39 36 36 34 33 34 33 33 32 31 32 32 31 30 29 28 27 26 26 25 24 25 25 24 24 24 23 22 22 22 21 20 18 16 14 12 10 9 7 6 4 4 3 4 5 7
86 89 90 91 90 91 92 92 90 90 91 91 91 92 91 91 92 92 90 89 88 86 83 80 74 72 72 70 68 66 64 62 60 57 55 53 53 52 50 47 40 36 36 35 34 33 34 35 36 35 35 35 34 33 32 31 29 29 28 27 27 28 27 27 27 28 26 25 25 24 24 24 22 20 18 16 15 13 12 10 8 7 6 5 5 5
83 88 90 91 92 92 93 94 93 92 93 95 94 92 91 90 90 91 89 88 89 87 84 81 76 73 73 72 70 67 65 63 61 60 59 56 54 53 51 48 43 38 37 36 36 37 38 38 40 40 39 38 37 36 34 33 32 30 29 30 30 31 30 30 30 31 30 30 29 28 26 26 25 24 23 21 19 18 16 14 13 11 10 8 8 7
81 88 91 92 93 93 94 94 94 93 94 96 95 93 92 90 88 89 88 87 89 88 85 83 80 77 74 72 72 69 65 63 63 62 61 59 56 54 53 50 46 41 38 37 37 39 40 40 40 40 40 40 39 37 36 35 33 31 29 30 32 33 33 33 33 33 33 33 34 32 30 29 29 28 26 25 24 22 20 19 18 16 14 12 11 10
77 86 91 93 94 94 94 94 94 94 94 94 93 92 92 91 90 90 89 88 87 87 85 84 82 80 77 73 72 71 67 65 64 63 63 61 57 55 55 53 49 44 41 40 39 41 43 44 43 41 40 40 39 38 38 36 32 31 30 30 31 34 35 37 38 38 37 37 37 36 34 32 31 30 28 27 25 23 22 21 21 20 18 17 16 15
74 83 90 93 95 96 94 93 94 94 94 93 92 92 92 92 92 91 90 88 87 87 87 86 85 83 80 76 73 71 69 66 65 65 64 63 59 56 55 54 51 47 44 42 42 43 44 45 45 45 42 40 39 39 39 37 34 34 35 33 33 35 36 39 42 43 42 38 37 38 38 35 33 32 30 28 26 24 23 23 22 21 20 20 20 18
71 80 88 93 96 96 94 93 94 95 94 93 93 92 93 93 93 92 91 90 89 89 90 90 88 84 82 80 76 72 69 67 66 65 64 64 61 58 57 56 54 51 46 44 45 46 46 46 46 47 45 42 41 41 40 40 39 39 40 39 39 40 40 41 42 43 45 43 38 39 40 37 34 33 32 30 29 28 27 26 25 24 23 23 23 21
68 78 86 92 96 97 94 94 96 97 95 95 94 94 94 93 93 92 91 91 91 90 90 90 88 85 82 82 80 76 73 70 68 65 64 63 62 60 60 58 57 54 50 48 48 49 48 47 46 47 46 45 44 44 45 45 44 44 45 45 45 44 44 45 44 42 45 46 43 41 41 38 35 34 33 32 32 31 32 31 30 28 27 25 24 23
64 74 84 91 95 98 96 95 97 98 96 95 94 94 94 93 93 93 92 92 91 91 89 88 86 84 81 80 80 80 78 75 73 69 66 65 63 62 62 62 60 57 54 52 50 50 49 48 46 46 46 46 47 47 48 48 47 47 49 49 49 49 47 48 48 44 43 45 45 44 42 39 38 38 36 34 33 33 33 33 31 29 26 24 22 23
59 70 81 89 94 98 97 96 98 98 97 96 95 95 94 93 93 93 92 93 92 91 89 87 84 82 80 79 78 79 79 78 75 72 69 68 67 66 65 64 63 61 56 52 50 49 49 50 49 48 48 48 49 50 51 51 50 49 50 51 52 53 52 51 49 46 44 44 46 47 45 42 41 42 41 38 35 34 34 34 32 29 27 25 24 24
54 65 76 86 92 96 97 97 98 99 98 97 96 96 95 94 94 93 92 93 93 91 88 87 85 80 77 78 78 76 76 76 74 73 71 70 69 68 68 66 66 64 58 52 51 48 45 48 51 51 51 51 51 53 54 54 52 51 52 53 54 56 56 55 51 49 47 46 46 48 48 46 43 44 44 42 39 38 38 37 35 34 33 29 26 26
50 61 72 82 90 95 96 97 98 99 99 97 95 96 96 94 94 93 93 92 92 92 87 85 88 84 77 76 78 77 76 76 76 74 72 72 70 68 68 68 68 68 63 55 53 50 44 44 48 52 54 54 54 54 54 54 55 55 55 53 54 57 59 58 57 54 51 50 50 50 50 49 47 46 45 44 42 40 40 39 38 38 38 34 30 31
46 56 67 78 89 94 96 98 99 99 99 98 97 97 97 96 95 94 94 92 92 94 89 81 85 90 86 78 78 80 79 77 76 75 73 73 72 69 68 68 68 71 69 61 55 51 45 44 48 51 53 57 59 58 55 53 54 57 58 56 56 58 60 60 60 59 56 54 54 53 51 50 50 51 51 48 45 42 41 41 39 38 39 38 36 37
42 52 62 72 84 92 96 99 100 100 99 100 99 97 96 97 97 95 95 93 92 95 94 84 82 91 95 84 74 77 82 80 78 77 75 74 73 70 69 69 69 72 73 68 61 55 49 49 52 53 53 57 61 64 64 62 59 58 58 58 58 60 61 61 60 59 57 54 55 57 57 54 52 54 55 52 48 45 44 44 43 41 41 42 42 43
38 48 57 66 77 87 95 98 100 100 100 100 100 98 95 96 97 96 95 95 93 93 96 93 88 91 97 90 76 74 82 85 84 82 79 76 76 74 71 71 72 74 75 73 68 63 57 54 56 58 57 57 60 66 69 71 69 65 61 60 61 62 63 63 62 60 58 55 53 56 62 64 61 58 56 53 50 48 48 49 49 48 48 48 48 48
33 42 52 61 70 81 90 96 99 100 101 101 101 100 97 94 95 96 96 96 95 92 94 97 95 92 95 95 87 80 82 85 87 88 85 81 79 79 77 76 77 78 77 75 71 68 64 61 60 62 64 62 61 64 68 71 73 72 70 68 69 68 67 66 66 66 66 64 60 59 62 66 67 65 63 60 57 54 53 54 53 53 53 53 52 52
31 38 48 58 66 74 84 92 97 100 101 101 101 101 100 97 95 94 93 95 97 94 92 94 94 92 91 93 94 91 88 87 88 90 91 89 86 85 85 83 82 83 83 80 75 72 70 67 63 64 69 70 68 67 68 70 72 75 75 74 73 72 72 71 70 70 70 71 72 70 67 67 67 68 69 69 67 64 62 60 58 56 55 55 55 55
28 35 43 54 62 69 78 87 94 98 100 101 100 100 101 100 98 94 91 92 94 95 93 93 93 93 92 90 93 97 97 94 93 92 93 93 92 91 91 89 88 89 88 85 81 78 76 71 66 66 70 74 75 74 74 74 75 76 77 77 75 73 73 73 73 73 73 73 75 76 76 74 72 71 70 71 71 71 69 66 62 60 59 59 60 61
25 32 39 48 58 65 72 80 89 96 98 100 100 100 101 101 100 98 94 91 92 93 91 88 90 95 95 90 92 98 100 99 98 99 98 97 96 95 93 92 92 93 92 89 87 85 82 77 74 71 71 76 80 81 79 80 81 80 80 79 77 75 74 75 75 75 76 77 77 78 78 78 78 77 74 73 73 73 72 70 68 66 65 65 65 66
22 28 35 43 53 61 67 73 82 90 96 98 99 100 101 100 99 99 97 94 92 92 87 80 81 91 96 94 93 98 101 101 101 101 103 103 101 100 97 95 94 96 96 94 93 91 89 85 81 77 72 74 82 86 85 84 84 84 85 83 81 78 77 78 79 80 80 81 81 81 79 79 80 80 78 76 75 74 74 73 72 72 71 71 70 70
19 24 31 38 47 56 62 68 75 83 91 95 98 99 100 100 99 99 98 97 95 94 92 86 83 89 95 97 97 98 100 102 102 101 102 104 105 104 103 100 99 100 101 99 96 95 94 92 89 84 77 73 77 84 89 90 88 87 87 87 87 85 82 80 81 83 84 84 84 83 82 80 80 80 79 77 76 76 76 77 77 77 76 77 76 75
16 21 28 35 43 51 58 64 68 75 84 91 95 98 99 100 100 100 100 100 97 96 96 95 93 93 95 97 97 96 96 99 101 100 99 101 104 104 105 104 103 102 104 104 101 98 98 98 97 94 88 81 77 78 83 89 93 93 92 90 90 89 88 86 83 83 83 84 85 85 83 82 81 80 79 77 77 77 77 78 79 80 79 79 79 79
15 18 25 32 39 46 54 61 64 68 76 85 91 95 98 99 100 100 100 100 100 98 98 98 97 97 97 97 97 95 94 95 98 99 98 98 99 100 102 104 103 101 103 105 105 102 100 100 102 102 100 95 89 84 82 83 88 94 97 97 94 92 91 90 88 86 84 84 85 85 85 84 83 82 82 81 80 79 77 75 74 75 77 78 78 78
15 15 22 28 34 41 49 58 63 64 69 77 84 91 95 97 99 100 100 100 100 100 100 100 99 98 98 97 96 96 95 95 97 98 98 97 96 96 97 100 101 100 100 102 104 104 101 99 100 103 105 105 102 98 93 89 87 89 94 99 101 99 96 94 92 91 89 88 88 87 87 87 87 86 85 84 83 82 80 77 73 70 71 73 75 76
17 13 18 25 31 38 46 55 63 65 66 71 77 85 90 94 97 99 100 100 101 100 100 101 101 100 99 97 96 95 96 96 98 100 100 98 96 94 94 95 97 99 100 101 103 104 104 102 100 100 102 105 107 107 105 102 98 94 93 95 99 103 103 100 97 96 95 95 95 93 92 91 91 90 89 88 86 85 84 83 81 76 72 70 70 72
17 13 14 21 28 35 43 52 60 63 64 67 72 78 84 89 93 97 98 99 100 101 101 101 102 101 100 99 98 97 97 97 98 101 103 102 100 98 97 97 97 98 99 101 102 104 106 108 107 105 103 103 105 108 109 110 109 107 103 100 99 101 103 104 103 102 101 101 101 100 99 97 96 96 95 94 93 91 89 88 87 86 83 79 76 74
16 13 11 17 24 31 40 48 56 60 62 65 68 73 79 83 87 91 95 97 99 100 100 101 101 102 101 101 100 100 100 100 100 100 102 105 106 105 104 102 102 101 101 101 102 104 105 108 110 111 111 110 109 108 109 109 111 112 112 111 108 105 105 106 106 106 106 106 105 104 104 103 102 102 101 100 99 99 98 97 95 93 91 89 87 85
15 12 9 13 20 27 35 43 51 57 62 64 64 67 72 77 80 84 89 93 96 98 99 100 101 101 102 102 102 101 101 101 102 101 101 103 107 109 108 107 107 106 106 106 106 106 107 108 109 111 113 114 115 114 113 112 112 112 113 114 115 114 113 112 111 111 110 109 108 106 104 103 102 101 100 100 99 99 99 100 100 100 98 96 94 93
Wind_Direction
217 219 216 212 209 208 208 208 207 207 208 208 205 203 203 205 206 204 203 205 209 212 213 211 209 209 203 201 208 209 210 218 225 223 213 204 208 194 170 164 115 88 62 43 36 37 43 51 55 60 62 62 60 60 61 62 62 61 59 58 57 56 56 57 57 59 60 59 59 59 58 58 59 60 59 58 58 58 59 59 58 57 59 61 62 64
215 218 217 212 209 208 207 206 206 205 208 208 205 203 204 205 205 204 202 201 202 205 208 208 206 206 205 204 205 207 214 220 218 214 205 193 201 194 180 182 158 117 88 60 44 39 44 53 58 62 66 66 64 63 63 63 63 62 60 59 58 58 59 60 59 60 62 62 61 60 59 59 59 61 60 59 58 58 59 59 59 58 58 61 64 65
213 215 217 213 209 208 206 205 205 205 207 208 205 203 203 204 205 204 203 203 204 204 205 205 203 203 203 205 206 210 217 217 210 209 199 186 194 193 182 185 181 152 119 88 61 45 44 55 62 65 69 70 69 67 66 66 65 64 62 61 60 59 60 61 61 62 63 63 62 61 61 60 60 60 60 58 57 57 57 58 59 59 58 59 61 62
211 212 214 213 210 208 205 203 204 205 205 206 205 202 202 203 204 204 203 204 206 207 207 205 202 201 203 207 208 209 212 211 207 209 201 189 192 193 184 186 188 174 151 122 88 61 49 54 64 69 72 74 74 72 71 70 68 67 65 63 61 60 60 60 61 61 62 62 62 61 60 59 59 60 59 58 56 56 56 57 58 59 59 58 59 59
208 209 212 213 210 207 204 202 203 204 204 205 204 201 200 202 204 204 202 202 205 208 209 208 202 201 203 206 204 202 205 209 210 212 209 196 196 203 196 189 188 181 173 154 120 87 63 55 60 71 75 77 78 77 76 74 72 69 67 65 62 59 58 59 59 59 60 61 63 62 60 59 59 59 59 59 57 56 56 56 56 57 57 57 57 58
206 207 210 212 210 206 204 201 202 203 204 205 204 202 201 202 204 205 203 201 201 203 207 208 204 202 206 206 204 203 205 208 211 216 215 201 202 213 206 196 190 185 189 176 145 116 85 65 61 69 79 80 80 80 80 77 75 71 68 66 62 58 57 57 58 57 57 59 61 63 61 59 59 58 59 58 58 58 57 56 55 54 54 55 56 56
205 205 208 211 210 207 204 201 201 202 203 204 204 203 202 202 204 204 203 202 200 199 202 205 205 206 210 212 211 209 207 207 211 217 217 206 208 216 209 201 195 188 194 189 167 147 122 94 70 69 80 85 84 83 83 79 76 72 68 66 62 58 57 57 57 55 56 56 58 61 62 61 60 59 58 57 57 58 58 57 56 54 53 54 55 55
204 204 205 209 209 207 205 201 200 202 202 203 203 203 202 201 203 204 204 203 202 202 203 204 207 209 213 215 215 212 208 206 210 216 217 210 209 215 212 204 197 190 195 195 184 170 151 135 101 79 78 88 93 90 87 84 79 73 68 66 62 58 57 57 57 56 56 55 56 58 60 62 62 61 60 58 56 57 58 58 56 55 54 55 55 55
204 203 203 206 207 206 204 201 200 202 202 201 202 202 201 201 203 204 204 204 204 204 205 207 210 211 214 217 217 214 207 206 210 214 218 214 207 211 213 206 199 193 194 199 195 186 170 159 141 108 86 85 99 101 93 88 84 78 69 64 62 58 56 56 55 56 56 56 57 57 59 61 62 63 62 60 58 56 56 57 57 56 55 55 55 55
205 203 202 204 207 206 203 200 200 203 202 200 201 201 200 200 202 202 204 204 202 200 202 206 209 210 213 216 216 212 204 205 211 214 218 217 208 208 212 208 202 197 195 198 200 196 185 173 164 146 115 88 92 106 105 94 87 83 74 64 60 58 55 55 55 55 56 56 58 58 59 61 62 63 63 62 61 58 56 56 57 58 57 56 55 55
204 203 202 202 206 206 203 200 200 202 202 200 200 200 200 200 200 200 203 204 200 196 198 202 203 203 205 209 210 208 202 204 210 214 218 218 209 206 211 210 206 202 198 199 202 198 192 185 179 172 151 115 92 103 119 110 90 83 78 65 59 57 53 54 56 57 58 60 62 61 61 60 61 63 65 64 63 61 59 57 56 58 59 58 56 55
202 203 202 201 203 205 203 200 200 201 200 199 199 200 200 199 199 200 202 202 199 196 198 199 199 199 200 204 206 207 205 205 207 212 217 219 212 203 205 211 211 209 203 201 203 201 195 190 187 189 180 154 117 103 123 129 99 79 73 62 54 55 53 53 55 60 62 63 64 64 63 61 61 62 65 66 66 64 61 59 57 56 58 59 58 56
201 202 202 200 202 204 201 201 201 200 199 198 198 201 201 199 200 201 201 200 196 196 198 199 199 199 200 203 205 206 206 203 205 211 216 220 217 206 202 209 215 216 211 204 205 205 198 191 191 198 199 183 156 123 125 141 126 72 52 42 35 40 50 53 56 63 68 68 66 64 65 64 64 64 65 67 68 68 65 62 60 56 55 56 58 57
200 201 202 200 200 202 201 200 201 199 199 198 198 200 200 200 200 202 201 198 194 194 196 198 199 200 202 204 205 205 203 200 203 210 215 217 218 210 204 207 213 218 216 208 206 208 202 193 192 199 207 202 187 161 145 150 160 161 349 357 359 2 23 45 55 62 67 70 70 68 68 68 67 66 65 67 68 69 68 66 64 60 56 54 55 56
200 200 202 200 199 200 200 199 199 198 198 199 198 199 200 200 200 202 202 198 193 194 195 197 199 200 200 203 205 205 203 201 201 208 214 215 215 212 205 204 208 214 217 211 205 208 207 199 195 198 205 209 201 190 180 174 177 204 301 321 325 323 328 355 24 46 57 66 70 71 71 70 70 69 66 65 66 68 69 68 66 64 60 57 55 55
201 201 202 200 198 199 198 197 198 198 198 198 197 198 199 200 200 201 202 199 195 196 197 197 199 199 199 202 205 205 205 204 203 206 212 214 212 211 207 203 204 207 214 214 207 207 208 204 201 199 203 209 207 203 201 199 202 205 242 301 313 309 300 306 318 333 10 43 61 69 70 68 67 69 68 65 64 65 68 68 67 65 63 61 59 57
200 203 203 200 199 200 198 197 198 199 199 198 197 198 199 199 200 201 202 200 197 198 199 200 202 200 199 201 204 205 206 207 205 206 211 213 210 209 209 208 207 204 209 215 212 208 209 208 205 203 204 208 210 210 211 211 218 222 223 248 283 299 297 297 302 312 324 343 16 43 58 54 54 64 70 69 66 66 66 66 67 66 64 63 61 60
200 202 203 201 199 200 200 198 199 199 199 199 198 198 199 199 199 200 201 201 199 200 201 203 205 204 201 202 204 205 207 208 208 205 208 212 210 209 211 212 210 204 205 213 214 210 210 211 209 208 207 208 209 211 216 216 218 226 232 236 246 261 277 291 295 304 314 320 338 355 356 358 19 53 70 71 72 71 68 63 62 64 63 62 61 60
200 202 203 202 200 199 200 199 199 200 200 200 200 199 199 198 198 199 201 201 200 201 201 202 205 204 203 204 205 206 207 208 209 206 206 210 212 211 211 213 211 206 203 209 213 211 210 212 212 213 213 210 208 209 215 220 219 223 233 238 239 242 250 265 277 291 303 317 336 349 350 348 351 22 66 74 75 75 74 66 58 56 57 58 58 58
200 201 203 204 201 199 200 199 199 200 201 201 200 199 199 199 198 198 200 202 201 201 200 200 202 202 203 206 207 207 208 208 210 209 205 207 212 212 211 211 211 210 207 207 211 211 211 212 213 215 217 216 212 209 213 220 222 222 228 236 241 242 244 250 259 271 280 291 308 319 333 349 1 22 55 75 80 75 78 74 61 52 49 49 51 52
200 201 203 204 202 201 201 200 199 201 202 201 200 199 199 199 199 199 200 201 201 200 200 199 200 202 203 206 207 208 207 206 208 208 205 205 210 212 212 212 211 210 210 209 209 210 211 213 215 217 220 222 220 216 217 222 225 227 231 238 245 249 249 249 254 261 269 273 279 282 290 312 339 359 9 30 64 69 81 86 70 56 47 42 42 42
199 200 202 203 202 201 202 201 201 201 202 202 201 199 199 199 199 199 200 201 201 201 200 200 201 203 205 206 207 207 206 205 205 206 204 205 209 208 207 213 215 212 212 212 211 211 213 216 217 219 222 225 226 224 223 226 229 231 235 240 247 251 253 253 254 256 261 267 271 274 277 283 293 307 323 336 341 4 52 80 66 53 50 40 34 34
199 200 200 202 202 202 202 202 201 202 203 203 203 201 200 200 199 199 200 200 201 202 201 201 202 204 206 208 208 207 206 205 204 203 203 204 207 206 203 208 213 211 209 211 214 216 218 220 221 223 225 227 229 229 227 229 232 232 235 239 244 249 252 255 256 256 257 261 266 270 272 275 279 282 289 294 290 297 320 351 1 14 35 31 26 28
200 201 200 201 202 202 202 201 201 202 203 204 204 203 201 201 200 200 200 200 201 202 201 202 203 204 206 209 209 208 206 205 203 201 201 203 206 207 206 206 209 210 206 206 213 220 224 227 228 228 229 230 231 231 231 233 234 236 239 241 244 247 250 254 258 259 259 259 262 266 269 271 273 274 275 275 274 276 282 289 299 320 342 355 6 16
201 201 201 201 202 202 202 201 200 201 203 204 205 204 202 202 202 201 200 200 201 201 201 201 202 202 205 208 210 208 206 205 203 201 201 203 205 207 208 207 208 211 210 208 211 216 222 229 233 233 232 232 232 232 233 235 236 239 243 246 248 249 250 252 255 258 260 260 260 261 264 268 269 270 269 268 266 266 268 272 278 288 300 315 329 342
201 201 201 201 203 204 203 202 201 202 203 203 203 204 203 202 203 203 201 200 202 202 201 201 201 201 203 207 209 208 205 204 204 202 202 204 206 208 208 206 207 211 214 212 209 209 213 223 231 234 233 234 235 235 236 236 236 239 244 248 250 251 252 253 254 255 258 261 261 258 259 262 264 265 265 265 264 262 262 265 270 277 286 296 301 304
202 202 202 202 204 205 205 204 203 202 204 204 203 203 203 202 203 205 203 202 203 204 203 202 201 201 202 206 208 208 205 203 203 203 203 204 206 207 207 206 206 208 212 213 210 208 209 214 221 227 231 234 236 239 241 240 239 242 244 247 252 254 255 255 256 256 256 257 258 257 255 256 258 260 262 264 264 262 262 266 269 275 281 285 288 289
204 204 202 202 204 205 206 206 204 204 205 205 204 204 204 202 203 204 204 203 204 205 204 204 203 202 202 204 207 208 206 203 203 204 204 206 207 208 208 206 204 206 209 212 212 211 212 212 214 218 223 229 233 238 243 244 246 248 247 248 254 257 258 258 256 256 255 254 254 256 257 257 257 258 260 263 265 264 265 269 273 276 280 281 282 284
205 205 204 203 204 205 206 206 206 206 206 206 205 205 205 204 203 204 204 203 203 205 205 205 205 204 203 204 207 208 207 204 204 206 207 209 211 211 209 206 203 204 209 213 212 212 214 215 215 216 218 223 228 233 238 240 241 244 245 247 250 252 253 254 254 253 253 254 255 256 258 259 258 256 258 260 261 260 262 266 270 274 278 279 279 282
206 205 205 205 205 206 205 206 207 207 206 206 206 206 206 205 203 203 204 203 203 205 206 206 206 205 204 205 207 208 208 206 207 210 212 214 215 214 211 207 203 204 210 212 210 210 213 215 217 218 219 221 225 229 231 231 231 233 237 240 240 243 246 247 248 250 250 250 253 255 254 254 255 255 256 256 255 255 259 262 263 266 271 274 274 276
208 206 206 206 206 206 205 206 208 208 206 206 206 207 207 207 204 203 204 204 204 205 206 207 207 207 206 207 208 209 209 208 210 213 216 217 218 215 212 208 204 205 210 211 208 208 210 213 216 219 220 221 224 226 228 228 228 228 230 233 233 235 241 242 242 246 247 246 248 250 250 250 251 253 254 252 251 254 259 261 261 262 267 272 273 272
210 207 207 207 207 206 205 206 209 209 207 207 207 207 208 208 206 204 204 205 205 206 207 208 208 209 209 209 210 211 211 212 213 215 217 219 218 214 212 210 206 205 209 210 209 210 211 211 213 215 217 219 221 225 228 230 230 228 228 230 230 231 236 240 240 242 245 246 245 245 247 250 251 252 251 248 248 253 258 259 258 259 262 267 272 274
213 210 208 208 208 207 205 207 209 209 208 207 207 208 208 209 208 206 204 205 205 206 207 208 208 209 210 211 212 213 214 214 215 216 216 217 217 213 212 211 207 206 208 209 208 210 212 213 213 214 215 216 218 223 228 230 231 231 230 231 232 231 233 236 237 237 242 248 248 244 245 250 252 250 246 244 246 250 253 254 254 254 256 260 267 272
217 212 210 209 209 208 206 207 210 210 209 208 208 208 208 209 209 207 205 206 206 206 206 207 208 208 208 211 213 213 213 215 215 214 213 213 214 213 213 212 209 208 209 209 208 208 211 213 215 215 216 216 216 220 226 229 231 233 233 233 233 232 232 234 237 238 242 247 248 244 243 247 248 245 242 242 247 251 251 250 251 253 255 257 260 267
221 216 212 210 210 208 207 208 210 211 210 209 209 209 208 209 209 209 207 206 207 207 206 207 208 207 206 208 211 211 211 212 213 212 211 210 211 211 213 213 212 210 211 210 208 209 212 216 218 218 217 217 216 218 224 229 232 234 235 234 233 234 234 235 237 240 242 245 245 242 243 243 240 238 239 243 248 250 249 248 248 251 253 253 256 264
223 219 215 213 210 208 207 208 210 211 211 210 210 209 209 208 209 209 207 206 207 207 206 207 210 209 206 207 210 210 210 211 211 211 210 209 209 210 211 213 213 212 212 211 209 208 211 216 218 217 217 217 217 218 220 224 228 231 233 233 233 233 234 236 237 239 241 244 242 239 240 241 238 237 240 243 244 244 243 244 245 247 248 251 258 267
226 221 217 215 213 209 207 208 209 211 211 211 211 210 210 209 209 209 208 207 207 207 206 207 210 211 209 208 210 212 212 211 211 209 208 208 208 208 209 210 211 212 213 212 210 209 212 217 218 215 213 215 217 218 219 221 223 225 227 228 230 231 231 233 236 238 240 242 240 236 236 238 238 239 240 241 240 238 237 239 242 243 246 251 259 267
229 223 219 217 215 212 209 208 209 211 211 212 212 211 211 210 209 209 208 207 207 207 207 208 210 212 211 210 211 213 213 213 213 211 208 207 207 207 208 208 209 212 215 214 212 212 214 219 221 218 215 215 215 217 219 222 223 224 224 225 227 229 229 230 232 234 235 236 236 234 234 236 239 240 241 240 240 239 237 237 240 243 247 252 258 265
233 227 221 218 216 214 211 209 210 211 212 212 213 212 212 211 211 210 209 208 208 208 208 209 211 213 213 213 213 214 214 214 215 214 211 209 209 210 212 212 210 213 219 220 216 215 216 217 221 223 222 219 217 217 218 220 223 224 225 226 228 229 230 230 230 231 232 234 234 233 233 235 238 241 243 245 246 245 242 240 242 246 249 253 258 264
235 228 222 218 217 215 213 210 210 211 212 213 213 214 213 212 212 212 210 208 209 209 209 210 212 213 214 215 216 217 217 216 215 215 214 213 214 216 218 217 215 215 219 222 222 221 219 217 219 225 226 225 223 220 219 220 221 223 225 227 229 230 230 231 231 232 233 235 237 237 237 238 240 242 245 247 248 248 247 244 245 249 251 253 256 260
240 230 224 220 217 215 214 212 210 211 212 213 214 215 215 213 213 212 211 209 209 210 211 211 212 214 215 216 217 218 219 219 217 216 216 216 218 221 221 220 221 219 218 219 223 226 224 220 220 225 228 228 227 225 223 222 223 224 225 227 228 229 230 230 231 232 233 235 237 239 240 242 244 245 246 247 248 250 249 248 248 252 253 253 255 257
247 234 226 221 219 216 214 213 211 211 212 213 214 215 216 215 214 213 212 211 210 210 211 213 215 216 217 218 218 218 219 220 220 219 219 219 221 223 223 222 224 224 221 219 221 226 226 223 223 226 228 229 230 228 227 226 226 227 227 228 229 229 229 230 231 232 233 235 237 239 241 243 245 246 248 249 249 250 249 248 250 255 256 255 256 257
254 238 229 223 220 217 215 213 213 212 211 212 213 215 216 216 215 214 213 212 211 210 210 211 215 218 218 218 219 219 218 220 221 221 222 222 223 225 225 225 226 227 226 223 222 224 226 225 225 226 228 229 230 231 231 230 229 229 230 230 231 230 230 231 233 234 235 236 237 238 240 243 245 247 249 250 250 250 249 249 252 257 258 258 258 258
260 241 230 224 220 217 215 213 213 212 212 212 213 214 216 216 216 215 214 213 212 211 210 210 214 218 218 218 220 220 219 220 222 222 223 224 225 226 227 228 229 231 230 228 225 225 226 226 226 227 227 228 230 232 233 233 232 231 232 232 233 232 232 232 233 234 235 236 237 237 238 240 243 245 246 248 249 249 249 250 253 257 258 258 258 258
270 243 231 224 219 216 214 212 212 213 213 213 213 214 215 216 216 216 215 214 213 212 212 212 214 217 219 219 220 221 221 221 222 223 224 225 226 228 229 229 231 232 233 233 232 230 229 229 229 228 229 229 230 231 233 233 234 234 234 234 234 234 233 233 233 233 234 234 235 236 237 239 240 241 242 244 246 247 248 249 251 252 254 256 257 258
283 248 233 226 219 215 212 211 211 212 213 213 213 214 215 216 216 217 216 215 215 214 214 214 215 217 219 220 220 221 221 221 221 223 225 226 228 229 229 230 231 232 234 235 236 235 234 233 232 231 231 231 232 233 233 233 234 235 235 236 235 235 234 234 235 234 233 233 234 235 236 238 239 239 240 241 243 245 247 249 249 249 250 253 255 257
297 257 235 227 220 214 211 209 209 210 212 213 213 214 215 216 216 217 217 217 217 216 216 216 216 217 219 221 222 222 222 221 221 221 223 226 228 229 230 230 231 232 233 234 235 236 236 236 236 235 234 233 234 235 235 234 234 234 235 236 237 236 236 236 236 235 233 233 235 237 237 238 238 239 240 241 243 244 246 249 250 249 249 249 251 253
307 271 238 227 219 213 210 208 208 209 211 213 214 214 215 216 216 217 218 218 218 218 219 219 219 219 219 220 222 223 223 223 222 222 223 225 227 228 230 231 231 232 233 234 235 236 236 236 237 237 237 236 235 236 237 237 236 235 235 236 236 237 237 237 237 236 235 236 238 241 242 241 241 241 242 243 244 245 246 248 249 250 249 249 250 251
309 288 245 228 219 213 209 208 208 209 210 211 213 214 215 216 217 217 218 218 219 220 220 221 221 221 221 221 222 223 224 224 224 224 225 225 227 229 231 232 233 233 234 234 235 236 237 237 238 238 239 239 239 238 238 239 238 238 237 237 237 237 238 238 238 238 238 238 241 244 246 245 245 246 247 247 247 248 248 249 249 250 250 250 250 251
307 297 257 230 220 213 210 209 209 209 210 212 213 214 215 216 217 218 218 219 220 220 221 222 223 223 222 223 223 224 225 225 226 227 227 228 229 230 232 234 235 235 236 236 236 237 238 239 239 240 241 242 242 242 242 241 240 240 240 239 239 239 239 239 239 240 240 241 243 245 247 248 248 248 249 249 249 250 250 251 251 251 251 250 250 251
309 304 275 237 222 214 210 209 209 210 212 213 214 215 216 217 218 219 219 220 221 221 222 223 224 225 225 225 225 225 226 226 227 227 228 229 230 231 232 234 235 237 238 238 238 238 239 240 241 241 242 243 243 244 244 244 244 243 243 242 242 241 241 240 240 241 241 242 243 245 246 247 248 248 248 249 250 250 251 251 252 252 252 252 252 252
Height
10890 10895 10902 10909 10915 10919 10923 10928 10936 10944 10947 10951 10957 10962 10967 10971 10976 10983 10989 10992 10992 10994 10996 10999 11002 11004 11006 11008 11009 11011 11014 11016 11018 11020 11021 11021 11022 11023 11023 11024 11024 11024 11023 11022 11021 11020 11019 11019 11018 11018 11017 11016 11015 11014 11013 11011 11010 11009 11009 11008 11008 11007 11006 11006 11005 11004 11002 11001 11000 10999 10998 10996 10995 10993 10992 10991 10989 10988 10986 10985 10984 10983 10982 10981 10981 10980
10885 10889 10894 10901 10906 10911 10916 10923 10930 10937 10941 10946 10953 10959 10964 10967 10972 10978 10982 10985 10987 10990 10993 10996 10999 11001 11002 11005 11007 11009 11012 11014 11017 11019 11020 11020 11021 11022 11023 11024 11024 11024 11024 11023 11023 11022 11021 11020 11020 11019 11018 11017 11017 11016 11014 11013 11012 11011 11010 11010 11009 11009 11008 11008 11007 11006 11005 11004 11003 11001 11000 10999 10997 10996 10995 10993 10992 10991 10989 10988 10986 10985 10984 10983 10983 10983
10877 10882 10886 10892 10898 10903 10910 10917 10924 10930 10935 10942 10949 10955 10960 10964 10968 10973 10976 10978 10982 10987 10990 10993 10996 10997 10999 11001 11004 11007 11010 11012 11015 11017 11018 11019 11020 11021 11022 11023 11024 11024 11024 11024 11024 11023 11023 11022 11021 11020 11020 11019 11018 11017 11016 11015 11014 11013 11013 11012 11011 11011 11010 11010 11009 11009 11008 11007 11006 11004 11003 11002 11000 10999 10998 10996 10995 10994 10992 10991 10989 10988 10987 10986 10986 10985
10866 10870 10875 10883 10890 10896 10904 10912 10918 10924 10930 10937 10944 10950 10955 10959 10963 10967 10970 10973 10978 10983 10987 10991 10993 10994 10997 10999 11002 11005 11008 11010 11013 11015 11016 11017 11019 11020 11021 11022 11024 11024 11025 11025 11024 11024 11024 11023 11023 11022 11021 11021 11020 11019 11019 11018 11017 11016 11015 11015 11014 11013 11013 11012 11011 11011 11010 11010 11009 11008 11006 11004 11003 11001 11000 10999 10998 10997 10995 10994 10993 10992 10990 10989 10988 10988
10853 10858 10865 10873 10881 10888 10897 10906 10912 10918 10924 10930 10936 10943 10949 10955 10959 10962 10965 10969 10975 10980 10985 10988 10990 10992 10995 10997 11000 11002 11005 11008 11010 11013 11014 11016 11018 11019 11020 11021 11022 11024 11024 11025 11025 11025 11025 11024 11024 11024 11023 11022 11022 11021 11021 11020 11019 11019 11018 11017 11016 11016 11015 11015 11014 11013 11013 11012 11011 11010 11009 11007 11006 11004 11003 11002 11001 11000 10999 10997 10996 10995 10994 10992 10991 10990
10841 10849 10857 10866 10874 10882 10890 10899 10905 10911 10918 10924 10930 10938 10944 10950 10955 10958 10962 10966 10971 10977 10981 10984 10987 10990 10992 10994 10997 11000 11002 11005 11008 11011 11013 11015 11016 11017 11019 11020 11021 11023 11024 11025 11025 11025 11025 11025 11025 11025 11024 11024 11023 11023 11022 11022 11021 11021 11020 11020 11019 11018 11018 11017 11016 11016 11015 11014 11013 11012 11011 11010 11008 11007 11006 11005 11004 11003 11001 11000 10999 10998 10997 10996 10994 10993
10834 10842 10851 10860 10869 10876 10884 10892 10899 10904 10912 10919 10926 10933 10939 10946 10951 10955 10959 10964 10968 10973 10977 10980 10984 10987 10989 10991 10995 10997 11000 11003 11005 11008 11011 11013 11014 11016 11018 11019 11021 11022 11024 11024 11024 11025 11025 11025 11025 11025 11025 11025 11025 11024 11024 11023 11023 11022 11022 11021 11021 11021 11020 11020 11019 11018 11017 11017 11016 11015 11014 11012 11011 11010 11009 11008 11006 11005 11004 11003 11002 11001 11000 10999 10997 10996
10829 10836 10844 10853 10862 10870 10878 10888 10895 10899 10905 10912 10919 10927 10935 10942 10948 10952 10957 10961 10965 10969 10973 10977 10980 10983 10985 10988 10991 10994 10997 11000 11002 11005 11008 11010 11012 11014 11016 11018 11020 11021 11023 11024 11024 11024 11025 11025 11026 11026 11026 11026 11025 11025 11025 11025 11024 11024 11023 11023 11023 11022 11022 11022 11021 11021 11020 11019 11018 11017 11016 11015 11013 11012 11011 11010 11009 11008 11007 11005 11004 11003 11002 11001 11000 10999
10820 10826 10834 10842 10852 10862 10871 10883 10890 10892 10897 10904 10913 10923 10933 10940 10944 10949 10954 10958 10962 10966 10970 10973 10976 10979 10982 10985 10988 10991 10995 10998 11000 11003 11005 11007 11010 11012 11014 11016 11018 11020 11022 11023 11024 11024 11024 11025 11026 11026 11026 11026 11026 11026 11026 11026 11026 11025 11024 11024 11024 11024 11024 11023 11023 11023 11022 11021 11020 11019 11018 11017 11016 11015 11014 11013 11012 11011 11010 11008 11007 11006 11004 11004 11003 11002
10814 10821 10829 10838 10847 10855 10864 10876 10883 10885 10891 10901 10911 10921 10929 10933 10938 10944 10949 10953 10957 10962 10966 10969 10973 10976 10978 10982 10985 10989 10992 10995 10997 11000 11003 11005 11008 11011 11013 11015 11017 11018 11020 11022 11023 11024 11024 11025 11026 11026 11027 11027 11027 11027 11027 11027 11027 11026 11026 11025 11025 11025 11025 11025 11025 11024 11024 11023 11022 11021 11021 11020 11019 11018 11017 11016 11015 11014 11012 11011 11010 11009 11007 11007 11006 11005
10809 10818 10826 10834 10841 10849 10860 10871 10875 10879 10889 10901 10910 10916 10921 10926 10932 10938 10942 10946 10953 10958 10962 10965 10969 10972 10975 10979 10982 10985 10987 10990 10994 10998 11001 11003 11006 11009 11010 11012 11014 11016 11018 11020 11022 11023 11024 11025 11025 11026 11027 11027 11028 11028 11028 11028 11028 11028 11028 11027 11027 11027 11026 11026 11026 11026 11026 11025 11024 11024 11023 11022 11021 11020 11020 11019 11018 11016 11015 11014 11013 11012 11011 11010 11009 11008
10799 10808 10817 10825 10833 10842 10855 10864 10867 10873 10884 10896 10905 10911 10915 10922 10927 10930 10933 10941 10948 10953 10957 10961 10964 10968 10972 10975 10978 10980 10982 10987 10992 10995 10998 11000 11003 11006 11008 11010 11013 11015 11016 11018 11020 11022 11023 11024 11025 11026 11027 11027 11028 11029 11029 11029 11029 11029 11029 11029 11028 11028 11028 11028 11028 11028 11027 11027 11026 11025 11025 11024 11023 11023 11022 11021 11020 11019 11018 11017 11016 11015 11014 11013 11012 11011
10790 10800 10809 10818 10826 10837 10849 10856 10861 10870 10881 10891 10900 10907 10912 10917 10920 10922 10928 10936 10944 10949 10953 10956 10960 10964 10967 10970 10973 10977 10981 10986 10989 10992 10995 10998 11001 11004 11006 11008 11011 11013 11015 11017 11019 11020 11022 11023 11025 11026 11027 11027 11028 11029 11029 11030 11030 11030 11030 11030 11030 11030 11029 11029 11029 11029 11029 11028 11028 11027 11026 11026 11025 11025 11024 11023 11022 11021 11020 11019 11018 11017 11017 11015 11014 11013
10785 10795 10803 10811 10821 10832 10842 10850 10860 10871 10879 10886 10893 10899 10905 10909 10913 10917 10924 10931 10939 10944 10948 10952 10956 10959 10962 10966 10970 10974 10979 10983 10986 10989 10992 10995 10998 11001 11003 11006 11009 11011 11013 11015 11017 11019 11021 11022 11024 11025 11026 11027 11028 11029 11029 11030 11031 11031 11031 11031 11030 11030 11030 11030 11030 11030 11030 11030 11029 11029 11028 11028 11027 11026 11026 11025 11024 11023 11022 11021 11020 11019 11019 11018 11016 11015
10783 10789 10795 10805 10814 10824 10835 10846 10855 10863 10869 10874 10881 10889 10896 10902 10906 10913 10920 10927 10933 10939 10943 10948 10951 10954 10959 10963 10967 10971 10975 10979 10983 10986 10989 10992 10995 10998 11000 11004 11006 11008 11011 11013 11015 11017 11019 11021 11022 11024 11025 11026 11028 11028 11029 11030 11031 11031 11031 11031 11031 11030 11030 11031 11030 11030 11031 11031 11031 11030 11030 11029 11029 11028 11027 11026 11025 11024 11024 11023 11022 11021 11020 11019 11018 11018
10783 10787 10791 10799 10807 10815 10828 10839 10845 10851 10856 10863 10873 10883 10888 10894 10900 10908 10915 10921 10927 10933 10938 10943 10946 10950 10955 10959 10963 10967 10971 10975 10979 10983 10986 10989 10992 10995 10997 11000 11002 11005 11008 11011 11013 11015 11017 11019 11020 11022 11024 11025 11027 11028 11029 11029 11030 11031 11031 11031 11030 11030 11030 11030 11030 11031 11031 11031 11031 11031 11030 11030 11030 11029 11028 11027 11027 11026 11025 11024 11023 11023 11022 11021 11021 11020
10777 10783 10790 10800 10809 10816 10824 10832 10837 10844 10852 10860 10869 10875 10878 10885 10894 10903 10911 10917 10923 10928 10934 10938 10942 10946 10951 10955 10959 10963 10967 10972 10976 10980 10983 10986 10990 10992 10994 10997 11000 11002 11005 11009 11011 11014 11016 11017 11019 11020 11022 11024 11026 11027 11028 11028 11029 11030 11030 11030 11030 11030 11030 11030 11030 11030 11030 11031 11031 11031 11031 11030 11030 11030 11029 11029 11028 11027 11027 11026 11025 11025 11024 11024 11023 11023
10773 10780 10789 10798 10806 10814 10823 10829 10834 10842 10850 10856 10861 10864 10871 10881 10891 10900 10908 10913 10919 10924 10929 10934 10937 10943 10948 10951 10955 10959 10963 10967 10972 10976 10980 10983 10987 10990 10992 10995 10998 11001 11003 11007 11010 11012 11014 11016 11017 11019 11020 11022 11024 11026 11027 11027 11028 11028 11029 11029 11029 11030 11030 11030 11030 11030 11030 11030 11030 11030 11030 11030 11030 11030 11030 11030 11030 11029 11028 11028 11027 11027 11026 11026 11025 11025
10770 10777 10785 10791 10798 10807 10818 10825 10832 10839 10845 10849 10854 10861 10871 10880 10887 10894 10901 10907 10914 10920 10924 10929 10934 10939 10944 10947 10951 10955 10959 10963 10967 10972 10977 10981 10985 10988 10992 10994 10996 10998 11001 11005 11008 11010 11012 11014 11016 11017 11019 11020 11022 11024 11025 11026 11026 11027 11027 11028 11028 11029 11029 11029 11030 11030 11030 11030 11030 11030 11030 11030 11030 11030 11031 11031 11031 11031 11030 11030 11029 11029 11028 11028 11028 11027
10766 10773 10780 10787 10796 10805 10813 10821 10829 10834 10838 10843 10851 10861 10870 10875 10880 10886 10893 10900 10908 10913 10919 10924 10930 10935 10939 10943 10946 10950 10955 10959 10964 10969 10974 10979 10983 10987 10991 10993 10995 10997 10999 11002 11005 11007 11010 11012 11014 11015 11017 11018 11020 11021 11023 11023 11024 11025 11025 11026 11026 11028 11029 11029 11029 11030 11031 11031 11031 11031 11031 11030 11030 11031 11031 11031 11031 11032 11031 11031 11031 11031 11030 11030 11030 11030
10760 10769 10775 10784 10796 10804 10810 10816 10821 10825 10831 10838 10846 10855 10863 10868 10874 10880 10886 10894 10901 10907 10913 10919 10925 10931 10934 10937 10940 10944 10949 10955 10960 10966 10973 10978 10982 10987 10992 10992 10992 10994 10995 10998 11001 11004 11007 11009 11011 11013 11014 11016 11017 11019 11020 11021 11022 11023 11024 11024 11025 11026 11027 11028 11029 11030 11030 11031 11032 11032 11032 11031 11032 11032 11032 11032 11032 11032 11032 11032 11032 11032 11032 11032 11032 11031
10752 10761 10769 10780 10792 10800 10806 10814 10819 10823 10829 10834 10841 10849 10855 10860 10866 10872 10878 10886 10893 10900 10907 10913 10919 10925 10928 10931 10935 10939 10946 10951 10957 10963 10970 10975 10979 10984 10987 10987 10986 10989 10992 10995 10998 11001 11004 11007 11009 11011 11012 11013 11015 11017 11018 11019 11020 11021 11022 11023 11023 11024 11026 11027 11028 11029 11030 11031 11031 11032 11032 11032 11032 11032 11032 11032 11032 11032 11032 11032 11032 11033 11033 11033 11033 11033
10747 10753 10763 10774 10784 10793 10801 10809 10816 10821 10827 10832 10837 10843 10847 10850 10857 10863 10870 10877 10884 10892 10900 10906 10913 10919 10923 10926 10930 10936 10943 10949 10954 10959 10964 10969 10972 10976 10977 10977 10979 10983 10988 10993 10996 11000 11003 11005 11008 11009 11009 11010 11012 11014 11015 11016 11017 11019 11020 11021 11021 11022 11023 11025 11026 11027 11029 11030 11030 11031 11031 11032 11032 11032 11032 11032 11032 11032 11032 11032 11032 11032 11033 11033 11033 11033
10744 10751 10760 10768 10775 10782 10789 10796 10803 10809 10816 10822 10826 10831 10837 10842 10848 10854 10860 10869 10878 10886 10894 10901 10908 10914 10918 10921 10926 10932 10939 10945 10950 10955 10959 10963 10967 10970 10972 10973 10976 10979 10984 10989 10994 10998 11003 11005 11006 11007 11007 11007 11009 11010 11012 11013 11015 11016 11017 11018 11019 11020 11021 11022 11023 11025 11026 11028 11028 11029 11030 11030 11031 11031 11031 11031 11031 11031 11031 11032 11032 11032 11032 11032 11033 11033
10741 10748 10757 10763 10767 10771 10776 10784 10791 10797 10802 10808 10814 10824 10833 10840 10845 10850 10858 10868 10876 10882 10890 10898 10904 10909 10913 10916 10921 10928 10935 10941 10946 10950 10954 10958 10962 10966 10969 10972 10975 10978 10981 10986 10990 10995 11000 11002 11003 11004 11004 11004 11005 11007 11008 11010 11012 11013 11015 11016 11017 11018 11019 11020 11021 11022 11023 11025 11026 11027 11027 11028 11029 11029 11029 11029 11029 11029 11030 11030 11031 11031 11031 11031 11032 11032
10736 10742 10750 10757 10760 10764 10769 10776 10783 10788 10792 10797 10805 10817 10829 10839 10846 10853 10862 10869 10873 10879 10886 10892 10898 10904 10908 10912 10918 10925 10931 10938 10943 10946 10950 10954 10958 10962 10966 10970 10973 10976 10979 10982 10985 10988 10992 10995 10998 10999 11000 11001 11002 11003 11005 11008 11009 11011 11012 11013 11014 11015 11016 11017 11018 11018 11020 11021 11022 11023 11024 11025 11025 11026 11026 11026 11027 11027 11028 11028 11029 11029 11030 11030 11030 11031
10731 10736 10742 10749 10754 10758 10763 10771 10779 10784 10786 10791 10802 10813 10824 10835 10844 10852 10862 10869 10873 10879 10885 10889 10894 10899 10904 10909 10915 10921 10928 10934 10938 10942 10946 10950 10954 10958 10962 10966 10969 10972 10976 10979 10982 10983 10985 10988 10991 10993 10995 10997 10998 11001 11002 11005 11007 11009 11011 11011 11012 11012 11013 11014 11015 11015 11016 11016 11017 11018 11019 11020 11021 11022 11023 11023 11024 11025 11025 11026 11027 11027 11028 11028 11029 11029
10727 10731 10737 10743 10747 10751 10758 10767 10775 10779 10783 10792 10805 10814 10822 10832 10838 10845 10855 10865 10873 10882 10886 10889 10891 10895 10900 10907 10913 10919 10925 10930 10934 10938 10942 10947 10951 10955 10958 10961 10965 10969 10972 10975 10978 10980 10981 10982 10984 10987 10990 10992 10995 10999 11001 11004 11007 11008 11009 11010 11010 11010 11010 11010 11010 11010 11010 11011 11012 11014 11015 11017 11018 11019 11020 11021 11022 11022 11023 11024 11025 11025 11026 11027 11027 11027
10720 10725 10732 10737 10740 10745 10754 10763 10770 10776 10784 10794 10805 10812 10818 10825 10831 10839 10849 10860 10870 10878 10882 10884 10886 10892 10900 10907 10911 10917 10923 10928 10932 10936 10940 10944 10948 10951 10954 10958 10961 10965 10969 10972 10974 10975 10977 10979 10981 10983 10985 10988 10991 10995 10999 11003 11005 11005 11005 11007 11007 11006 11005 11003 11002 11004 11006 11007 11008 11010 11011 11013 11015 11016 11017 11018 11019 11020 11020 11021 11022 11023 11024 11025 11025 11026
10713 10719 10726 10731 10734 10740 10750 10757 10763 10771 10781 10790 10799 10805 10810 10816 10825 10836 10846 10855 10862 10867 10870 10875 10881 10890 10899 10904 10909 10914 10921 10926 10930 10933 10937 10940 10943 10947 10950 10954 10958 10961 10965 10967 10968 10969 10972 10975 10977 10980 10982 10985 10988 10991 10993 10995 10998 10999 11000 11001 11001 11000 10999 10997 10996 10998 11001 11002 11003 11005 11006 11008 11010 11011 11013 11015 11015 11016 11017 11018 11019 11020 11021 11022 11022 11024
10708 10714 10719 10723 10728 10735 10745 10750 10754 10763 10775 10784 10791 10797 10803 10812 10822 10832 10840 10848 10854 10859 10864 10871 10880 10888 10895 10899 10904 10909 10914 10919 10923 10926 10931 10935 10939 10942 10946 10949 10953 10956 10959 10962 10963 10964 10967 10970 10974 10976 10979 10981 10984 10986 10986 10987 10991 10993 10993 10994 10995 10993 10992 10992 10993 10993 10993 10995 10998 11000 11002 11004 11006 11007 11009 11010 11011 11012 11013 11014 11015 11017 11017 11018 11020 11021
10703 10708 10712 10717 10721 10728 10738 10743 10747 10758 10770 10778 10786 10793 10800 10809 10818 10827 10835 10842 10849 10856 10863 10870 10878 10885 10891 10894 10899 10903 10908 10912 10915 10919 10925 10929 10934 10938 10941 10944 10947 10951 10954 10956 10958 10960 10962 10965 10968 10971 10974 10977 10979 10981 10981 10982 10985 10987 10987 10989 10990 10989 10988 10988 10989 10988 10987 10988 10992 10996 10998 11000 11002 11003 11005 11006 11007 11008 11009 11010 11011 11013 11014 11015 11017 11018
10698 10702 10705 10710 10715 10722 10733 10738 10743 10752 10762 10770 10779 10787 10794 10803 10812 10822 10831 10837 10844 10852 10861 10869 10876 10882 10887 10890 10893 10898 10903 10906 10909 10912 10918 10924 10928 10932 10936 10939 10942 10946 10949 10952 10954 10957 10959 10961 10964 10966 10968 10971 10973 10974 10975 10977 10980 10982 10983 10984 10985 10985 10984 10984 10985 10984 10983 10984 10987 10991 10994 10995 10996 10998 11000 11001 11002 11003 11005 11006 11007 11009 11010 11012 11013 11014
10694 10697 10700 10704 10709 10719 10730 10735 10738 10744 10753 10763 10772 10780 10787 10796 10805 10816 10825 10833 10840 10848 10857 10866 10872 10877 10881 10883 10887 10893 10897 10899 10901 10904 10910 10917 10922 10926 10930 10934 10938 10942 10946 10948 10950 10953 10956 10959 10960 10961 10963 10964 10966 10968 10970 10972 10975 10977 10979 10980 10980 10979 10979 10979 10980 10980 10980 10980 10981 10985 10988 10990 10991 10993 10994 10995 10997 10998 11000 11002 11003 11005 11006 11008 11009 11011
10689 10691 10694 10698 10703 10713 10725 10730 10733 10738 10747 10758 10767 10773 10781 10789 10798 10809 10820 10829 10837 10845 10854 10862 10866 10870 10875 10877 10879 10883 10887 10889 10892 10897 10904 10910 10915 10919 10924 10928 10933 10938 10942 10944 10946 10949 10953 10956 10956 10956 10956 10957 10959 10962 10966 10969 10971 10972 10973 10973 10974 10973 10973 10974 10975 10974 10974 10974 10976 10979 10982 10983 10985 10987 10988 10990 10991 10993 10995 10997 10998 11000 11002 11003 11005 11007
10683 10685 10688 10691 10695 10704 10715 10721 10726 10733 10742 10751 10758 10765 10773 10780 10787 10798 10810 10821 10830 10838 10847 10855 10858 10861 10866 10869 10872 10875 10878 10882 10887 10893 10899 10905 10909 10914 10918 10922 10928 10933 10934 10937 10939 10941 10944 10945 10944 10944 10945 10946 10949 10954 10959 10962 10962 10962 10962 10964 10965 10965 10965 10966 10968 10967 10968 10970 10971 10973 10975 10977 10978 10980 10981 10983 10985 10987 10989 10991 10993 10995 10997 10998 11000 11002
10676 10679 10682 10686 10690 10698 10706 10713 10719 10727 10735 10743 10751 10759 10766 10772 10780 10790 10801 10812 10820 10828 10837 10844 10846 10848 10854 10861 10866 10870 10874 10878 10882 10886 10892 10898 10903 10908 10912 10917 10923 10925 10924 10926 10928 10928 10929 10930 10931 10932 10934 10937 10941 10945 10949 10950 10950 10950 10952 10954 10955 10956 10956 10958 10961 10962 10963 10965 10966 10967 10969 10971 10972 10973 10975 10978 10979 10981 10984 10985 10987 10989 10991 10993 10995 10997
10671 10674 10677 10681 10686 10693 10701 10707 10713 10720 10727 10735 10745 10755 10761 10768 10776 10786 10795 10804 10812 10819 10827 10832 10834 10837 10844 10852 10857 10860 10865 10870 10873 10878 10885 10890 10895 10900 10904 10908 10912 10911 10908 10911 10916 10917 10918 10921 10923 10925 10927 10929 10933 10937 10940 10941 10942 10943 10945 10946 10947 10948 10949 10950 10953 10955 10957 10959 10959 10961 10963 10965 10967 10968 10969 10971 10973 10975 10978 10980 10981 10983 10985 10988 10990 10993
10666 10669 10673 10676 10680 10686 10694 10702 10708 10714 10721 10729 10739 10748 10755 10762 10770 10779 10788 10796 10804 10811 10817 10822 10826 10832 10840 10846 10850 10852 10856 10861 10864 10870 10876 10881 10886 10890 10892 10894 10898 10897 10894 10897 10904 10907 10908 10911 10915 10918 10920 10922 10925 10929 10932 10934 10935 10936 10938 10939 10940 10941 10941 10942 10944 10946 10949 10951 10953 10954 10956 10958 10960 10962 10963 10964 10966 10969 10972 10974 10976 10978 10980 10983 10986 10989
10661 10663 10666 10669 10673 10678 10686 10694 10702 10709 10716 10724 10732 10740 10747 10756 10764 10773 10782 10790 10797 10804 10810 10816 10821 10827 10834 10839 10841 10843 10847 10850 10855 10861 10867 10872 10876 10877 10878 10881 10885 10884 10883 10886 10893 10896 10898 10902 10908 10911 10912 10914 10918 10921 10923 10926 10928 10929 10930 10931 10932 10933 10935 10935 10937 10938 10940 10943 10945 10947 10949 10951 10953 10955 10956 10958 10960 10962 10965 10968 10970 10972 10975 10979 10982 10983
10656 10657 10660 10663 10666 10671 10678 10686 10694 10702 10710 10718 10726 10732 10740 10749 10758 10767 10777 10785 10792 10798 10804 10810 10814 10817 10820 10822 10823 10828 10834 10839 10846 10852 10856 10860 10863 10864 10867 10872 10874 10872 10873 10880 10884 10886 10890 10897 10902 10905 10906 10907 10909 10911 10914 10916 10918 10920 10921 10923 10924 10926 10928 10928 10929 10931 10933 10935 10937 10939 10941 10943 10945 10947 10949 10951 10953 10956 10958 10961 10963 10965 10968 10972 10973 10974
10651 10653 10655 10658 10661 10666 10672 10680 10687 10694 10703 10711 10719 10725 10732 10741 10750 10759 10769 10777 10783 10790 10799 10805 10806 10806 10808 10808 10810 10815 10821 10828 10835 10840 10844 10848 10851 10853 10858 10863 10863 10861 10865 10871 10875 10876 10881 10888 10893 10896 10898 10898 10899 10901 10904 10906 10909 10910 10912 10915 10917 10919 10920 10921 10922 10924 10926 10928 10929 10931 10933 10934 10936 10938 10941 10943 10946 10948 10950 10952 10954 10956 10960 10963 10964 10965
10647 10648 10650 10653 10656 10661 10667 10674 10680 10688 10696 10704 10711 10717 10723 10733 10743 10753 10762 10769 10775 10783 10791 10795 10794 10793 10796 10799 10801 10806 10812 10818 10824 10830 10834 10838 10841 10844 10848 10852 10853 10853 10856 10861 10865 10868 10872 10877 10882 10886 10888 10889 10890 10893 10895 10898 10900 10902 10904 10906 10909 10912 10913 10913 10915 10916 10918 10920 10921 10922 10924 10926 10928 10930 10933 10935 10938 10940 10942 10944 10946 10948 10951 10953 10955 10957
10644 10644 10645 10648 10651 10656 10662 10668 10674 10682 10690 10696 10702 10709 10716 10724 10734 10744 10753 10761 10767 10774 10779 10781 10780 10781 10785 10789 10794 10800 10806 10812 10817 10822 10826 10830 10833 10836 10839 10842 10845 10845 10847 10853 10859 10862 10865 10868 10872 10876 10879 10881 10882 10885 10887 10890 10893 10894 10896 10898 10900 10903 10904 10905 10907 10908 10910 10911 10912 10914 10916 10918 10920 10922 10925 10927 10928 10931 10934 10937 10939 10940 10942 10943 10945 10947
10641 10640 10641 10642 10645 10650 10657 10663 10670 10676 10682 10688 10695 10701 10707 10714 10724 10733 10742 10750 10756 10762 10767 10770 10771 10773 10777 10782 10789 10796 10801 10806 10810 10814 10818 10821 10825 10827 10830 10833 10836 10838 10840 10845 10851 10855 10858 10861 10863 10866 10869 10872 10874 10876 10879 10882 10884 10886 10887 10888 10891 10893 10895 10897 10898 10899 10901 10902 10903 10905 10907 10909 10911 10914 10916 10918 10919 10921 10924 10926 10929 10931 10932 10932 10934 10936
10638 10637 10637 10638 10642 10646 10652 10658 10664 10670 10675 10681 10688 10694 10700 10708 10717 10726 10733 10740 10747 10752 10756 10760 10763 10766 10769 10775 10782 10789 10794 10798 10802 10806 10810 10813 10816 10819 10821 10824 10828 10831 10834 10837 10841 10845 10849 10852 10855 10857 10859 10861 10864 10866 10869 10872 10874 10876 10877 10879 10881 10883 10885 10887 10889 10890 10892 10893 10894 10895 10897 10899 10902 10904 10906 10909 10911 10912 10914 10916 10919 10921 10922 10923 10925 10927
10636 10635 10635 10636 10639 10643 10648 10653 10658 10664 10669 10675 10681 10687 10693 10701 10710 10718 10725 10732 10738 10743 10747 10750 10754 10759 10763 10768 10774 10780 10786 10790 10794 10797 10801 10804 10808 10810 10813 10815 10819 10822 10826 10829 10831 10834 10838 10841 10843 10846 10849 10851 10853 10856 10858 10861 10863 10865 10867 10869 10871 10873 10875 10877 10879 10881 10883 10884 10884 10886 10887 10889 10891 10894 10896 10899 10901 10902 10904 10907 10910 10912 10913 10915 10917 10918
10633 10633 10633 10633 10635 10639 10643 10647 10651 10656 10662 10669 10675 10680 10686 10693 10701 10709 10716 10723 10729 10734 10738 10742 10747 10752 10757 10762 10767 10772 10777 10782 10785 10789 10793 10796 10799 10801 10803 10806 10809 10812 10816 10819 10822 10824 10827 10829 10832 10834 10837 10839 10842 10844 10847 10849 10852 10854 10856 10858 10860 10862 10864 10866 10868 10871 10872 10874 10875 10876 10877 10879 10881 10883 10885 10888 10890 10892 10894 10896 10899 10902 10905 10907 10909 10910
10632 10631 10631 10631 10632 10635 10639 10642 10647 10652 10658 10663 10668 10673 10679 10685 10693 10700 10707 10714 10720 10725 10730 10734 10739 10745 10750 10755 10760 10764 10768 10773 10776 10780 10784 10788 10790 10791 10793 10796 10798 10801 10805 10809 10812 10814 10816 10819 10821 10823 10825 10827 10829 10832 10834 10837 10840 10843 10845 10847 10849 10852 10854 10856 10858 10860 10861 10863 10865 10866 10866 10868 10871 10873 10875 10877 10879 10882 10883 10885 10888 10891 10894 10897 10900 10902
10631 10630 10629 10629 10631 10633 10636 10640 10644 10649 10654 10658 10662 10668 10673 10679 10686 10693 10700 10706 10712 10717 10722 10726 10731 10736 10741 10746 10751 10755 10759 10764 10768 10771 10775 10778 10781 10782 10784 10786 10788 10791 10794 10797 10801 10803 10805 10807 10809 10812 10813 10815 10817 10819 10822 10825 10828 10831 10833 10836 10838 10840 10842 10845 10847 10849 10851 10853 10855 10855 10855 10857 10859 10862 10864 10866 10868 10870 10873 10874 10877 10879 10883 10886 10889 10891
10630 10628 10627 10628 10629 10631 10634 10638 10642 10646 10650 10654 10659 10664 10669 10674 10681 10687 10693 10698 10704 10708 10713 10718 10722 10727 10732 10736 10741 10746 10750 10754 10758 10762 10765 10768 10771 10773 10775 10776 10778 10780 10782 10785 10789 10792 10794 10796 10798 10800 10801 10803 10805 10807 10809 10811 10814 10817 10820 10824 10826 10829 10831 10833 10835 10838 10840 10841 10843 10845 10846 10846 10848 10850 10852 10854 10856 10859 10861 10863 10866 10868 10871 10874 10877 10879